www.pogodaiklimat.ru

Погода и климат >> Архив погоды >> Австралия >> Северная территория >> Борролоола


ПОГОДА в Борролооле

  • Прогноз погоды в Борролооле
  • Монитор погоды в Борролооле

АРХИВ ПОГОДЫ в Борролооле

Время (UTC), дата Ветер
(напр.,м/с)
 
Видим.   Явления Облачность Т
(С)
Тd
(С)
f
(%)
Тe
(С)
Тes
(С)
Комфортность P
(гПа)
Po
(гПа)
Тmin
(С)
Tmax
(С)
R
(мм)
R24
(мм)
S
(см)
11 15.01 штиль 0 н/о н/о +27.7 +23.7 79 +38 +38 очень
душно
1007.1 1005.2
14 15.01 С 2 н/о н/о +27.5 +23.7 80 +38 +38 очень
душно
1007.9 1006.0
17 15.01 ЮЗ 2 н/о н/о +26.6 +24.8 90 +38 +38 очень
душно
1006.7 1004.8
20 15.01 В 2 н/о н/о +26.3 +24.7 91 +37 +37 очень
душно
1007.1 1005.2
23 15.01 Ю 3 н/о н/о +29.3 +24.4 75 +41 +41 опасность
перегрева
1009.6 1007.7
02 16.01 СВ 2 н/о н/о +33.5 +23.2 55 +44 +44 опасность
перегрева
1007.9 1006.0
05 16.01 З 4 н/о н/о +24.7 +24.4 98 +34 +34 очень
душно
1007.1 1005.2
08 16.01 В 4 н/о н/о +26.5 +24.2 87 +37 +37 очень
душно
1007.1 1005.2
11 16.01 СЗ 3 н/о н/о +25.5 +22.8 85 +34 +34 очень
душно
1006.9 1005.0
14 16.01 штиль 0 н/о н/о +25.3 +23.7 91 +34 +34 очень
душно
1008.3 1006.4
17 16.01 штиль 0 н/о н/о +25.3 +23.2 88 +34 +34 очень
душно
1006.0 1004.1
20 16.01 штиль 0 н/о н/о +24.4 +23.7 96 +33 +33 очень
душно
1006.8 1004.9
23 16.01 ЮВ 2 н/о н/о +28.0 +23.8 78 +39 +39 очень
душно
1008.6 1006.7
02 17.01 СВ 4 н/о н/о +32.8 +23.7 59 +44 +44 опасность
перегрева
1008.0 1006.1
05 17.01 СВ 5 н/о н/о +33.8 +21.9 50 +42 +42 опасность
перегрева
1005.0 1003.1
08 17.01 В 9 н/о н/о +30.3 +21.4 59 +38 +38 очень
душно
1005.1 1003.2
11 17.01 С 2 н/о н/о +27.4 +22.6 75 +36 +36 очень
душно
1006.5 1004.6
14 17.01 З 2 н/о н/о +26.9 +24.7 88 +38 +38 очень
душно
1007.7 1005.8
17 17.01 ЮЗ 1 н/о н/о +26.4 +25.0 92 +38 +38 очень
душно
1005.7 1003.8
20 17.01 штиль 0 н/о н/о +25.7 +24.8 95 +36 +36 очень
душно
1006.0 1004.1
23 17.01 В 1 н/о н/о +30.5 +25.8 76 +45 +45 опасность
перегрева
1007.2 1005.3
02 18.01 СВ 6 н/о н/о +34.4 +22.5 50 +44 +44 опасность
перегрева
1007.5 1005.6
05 18.01 С 6 н/о н/о +34.7 +24.0 54 +46 +46 опасность
перегрева
1005.6 1003.7
08 18.01 СВ 7 н/о н/о +31.2 +22.5 60 +41 +41 опасность
перегрева
1006.1 1004.2
11 18.01 Ю 2 н/о н/о +26.2 +23.7 86 +36 +36 очень
душно
1008.1 1006.2
14 18.01 ЮВ 2 н/о н/о +26.0 +24.4 91 +36 +36 очень
душно
1009.5 1007.6
17 18.01 штиль 0 н/о н/о +25.7 +24.5 93 +36 +36 очень
душно
1007.5 1005.6
20 18.01 ЮВ 2 н/о н/о +25.3 +24.8 97 +36 +36 очень
душно
1007.1 1005.2
23 18.01 Ю 2 н/о н/о +30.4 +25.7 76 +45 +45 опасность
перегрева
1009.8 1007.9
02 19.01 С 3 н/о н/о +33.3 +23.9 58 +45 +45 опасность
перегрева
1009.1 1007.2
05 19.01 С 5 н/о н/о +35.6 +22.5 47 +45 +45 опасность
перегрева
1006.7 1004.8
08 19.01 СВ 4 н/о н/о +33.8 +22.9 53 +44 +44 опасность
перегрева
1005.6 1003.7
11 19.01 С 4 н/о н/о +30.3 +24.0 69 +42 +42 опасность
перегрева
1008.0 1006.1
14 19.01 С 3 н/о н/о +28.6 +24.8 80 +41 +41 опасность
перегрева
1008.5 1006.6
17 19.01 штиль 0 н/о н/о +27.2 +25.0 88 +39 +39 очень
душно
1006.5 1004.6
20 19.01 штиль 0 н/о н/о +26.6 +25.4 93 +39 +39 очень
душно
1006.9 1005.0
23 19.01 В 2 н/о н/о +31.4 +25.7 72 +46 +46 опасность
перегрева
1009.0 1007.1
02 20.01 СВ 4 н/о н/о +33.3 +24.2 59 +45 +45 опасность
перегрева
1008.4 1006.5
05 20.01 СВ 2 н/о н/о +29.4 +25.2 78 +43 +43 опасность
перегрева
1007.4 1005.5
08 20.01 В 3 н/о н/о +24.9 +23.7 93 +34 +34 очень
душно
1008.2 1006.3
11 20.01 штиль 0 н/о н/о +25.4 +23.8 91 +35 +35 очень
душно
1008.8 1006.9
14 20.01 штиль 0 н/о н/о +25.6 +24.4 93 +36 +36 очень
душно
1008.5 1006.6
17 20.01 штиль 0 н/о н/о +25.5 +24.8 96 +36 +36 очень
душно
1006.4 1004.5
20 20.01 Ю 2 н/о н/о +24.7 +24.5 99 +35 +35 очень
душно
1006.8 1004.9
23 20.01 Ю 3 н/о н/о +28.2 +25.0 83 +41 +41 опасность
перегрева
1008.8 1006.9
02 21.01 С 3 н/о н/о +32.7 +23.9 60 +44 +44 опасность
перегрева
1008.1 1006.2
05 21.01 СВ 5 н/о н/о +32.7 +23.6 59 +44 +44 опасность
перегрева
1006.8 1004.9
08 21.01 ЮВ 4 н/о н/о +26.9 +23.4 81 +36 +36 очень
душно
1007.4 1005.5
11 21.01 СВ 1 н/о н/о +26.8 +24.1 85 +37 +37 очень
душно
1008.5 1006.6
14 21.01 С 2 н/о н/о +26.7 +24.5 88 +38 +38 очень
душно
1009.0 1007.1
17 21.01 штиль 0 н/о н/о +25.6 +24.6 94 +36 +36 очень
душно
1007.0 1005.1
20 21.01 штиль 0 н/о н/о +24.6 +24.1 97 +34 +34 очень
душно
1007.0 1005.1
23 21.01 ЮВ 2 н/о н/о +29.2 +25.4 80 +43 +43 опасность
перегрева
1008.7 1006.8
02 22.01 СВ 4 н/о н/о +31.9 +23.2 60 +42 +42 опасность
перегрева
1008.3 1006.4
05 22.01 В 6 н/о н/о +32.5 +22.9 57 +43 +43 опасность
перегрева
1006.9 1005.0
08 22.01 С 6 н/о н/о +30.9 +23.3 64 +41 +41 опасность
перегрева
1007.1 1005.2

 

Местоположение метеостанции Борролоола (Северная территория, Австралия): широта -16.08 долгота 136.30 высота над уровнем моря 17 м.

В архиве по умолчанию представлена погода в Борролооле за последнюю неделю. Архивные данные за месяц целиком и за предыдущие месяцы, начиная с января 2011 года, Вы можете получить, выбрав интересующий диапазон дат из раскрывающегося списка и нажав кнопку "Ввод!".


*Определитесь, кто Вы:
робот инопланетянин человек

Внимание! Время в таблицах - всемирное. Для получения местного времени необходимо прибавить поправку, которая равна 9.5 ч.

Смотрите также архив погоды в соседних городах и на ближайших метеорологических станциях:

Погода в Аэропорту Макартур Ривер Майн (Северная территория, Австралия) (46 км)
Погода на Острове Центр (Северная территория, Австралия) (65 км)
Погода в Аэропорту Грут-Айленд (Северная территория, Австралия) (234 км)
Погода на Острове Северо-восточный (Северная территория, Австралия) (279 км)
Погода на Острове Морнингтон (Квинсленд, Австралия) (313 км)
Погода в Дейли Уотерс (Северная территория, Австралия) (314 км)
Погода в Булман Уимол (Северная территория, Австралия) (342 км)
Погода в Беркетауне (Квинсленд, Австралия) (391 км)
Погода на Руднике Century Mine (Квинсленд, Австралия) (391 км)
Погода в Аэропорту Гоув (Северная территория, Австралия) (426 км)

Пояснения к столбцам:

Ветер - указаны скорость ветра в м/с - средняя за 10 мин, порывы в срок и между сроками (в фигурных скобках) и направление, откуда дует ветер: С - северный, СВ - северо-восточный, В - восточный, ЮВ - юго-восточный, Ю - южный, ЮЗ - юго-западный, З - западный, СЗ - северо-западный.
Видимость - горизонтальная дальность видимости в метрах или километрах. При видимости от 1 до 10 км при отсутствии осадков обычно наблюдается дымка, при ухудшении видимости до 1 км и менее - туман. В сухую погоду видимость может ухудшаться дымом, пылью или мглою.
Явления - указаны атмосферные явления, наблюдавшиеся в срок или в последний час перед сроком; фигурными скобками обозначены явления, наблюдавшиеся между сроками (за 1-3 часа до срока); квадратными скобками обозначены град или гололедные отложения с указанием их диаметра в мм.
Облачность - указаны через наклонную черту общая и нижняя облачность в баллах и высота нижней границы облаков в метрах; квадратными скобками обозначены формы облаков: Ci - перистые, Cs - перисто-слоистые, Cc - перисто-кучевые, Ac - высококучевые, As - высокослоистые, Sc - слоисто-кучевые, Ns - слоисто-дождевые, Cu - кучевые, Cb - кучево-дождевые. Подробнее классификацию облаков см. в Атласе облаков (PDF).
T - Температура воздуха - температура, измеренная на высоте 2 м над землей.
Td - Температура точки росы - температура, при понижении до которой содержащийся в воздухе водяной пар достигнет насыщения.
f - Относительная влажность воздуха - влажноcть воздуха, измеренная на высоте 2 м над землей.
Te - Эффективная температура - температура, которую ощущает одетый по сезону человек в тени. Характеристика душности погоды. При расчете учитывается влияние влажности воздуха и скорости ветра на теплоощущения человека.
Tes - Эффективная температура на солнце - температура, которую ощущает человек, с поправкой на солнечный нагрев. Характеристика знойности погоды. Зависит от высоты солнца над горизонтом, облачности и скорости ветра. Ночью, в пасмурную погоду, а также при ветре 12 м/с и более поправка равна нулю.
P - Атмосферное давление - приведенное к уровню моря атмосферное давление.
Po - Атмосферное давление - измеренное на уровне метеостанции атмосферное давление.
Tmin - Минимальная температура - минимум температуры воздуха на высоте 2 м над землей.
Tmax - Максимальная температура - максимум температуры воздуха на высоте 2 м над землей.
R - Количество осадков - Количество выпавших осадков за период времени, мм. При наведении курсора мыши на число - период времени, за который выпало указанное количество осадков.
R24 - Количество осадков - Количество выпавших осадков за 24 часа, мм.
S - Снежный покров - Высота снежного покрова, см. При наведении курсора мыши на число - состояние снежного покрова и степень покрытия местности в баллах.